Wind_Speed
5 5 5 5 6 7 8 9 10 12 13 14 15 16 17 16 15 14 14 13 12 10 8 7 7 7 9 12 14 16 19 21 23 25 26 26 27 27 28 28 28 28 29
6 6 5 5 6 7 8 9 10 12 13 14 16 16 17 17 16 15 14 14 12 10 8 7 7 6 7 8 11 14 16 18 21 23 25 26 27 27 27 28 28 28 29
6 6 5 5 6 7 8 10 11 12 13 14 15 16 17 17 16 15 14 14 13 11 9 8 6 6 6 6 8 11 13 16 18 21 23 25 26 27 28 29 29 29 29
6 6 5 5 6 7 8 10 11 12 13 14 15 16 16 16 16 15 14 14 13 12 11 8 7 5 4 5 7 9 11 13 15 18 20 23 26 27 28 28 29 30 29
6 6 6 6 6 7 8 9 10 11 12 13 14 15 16 16 16 15 15 14 13 13 11 9 7 6 4 4 5 7 9 12 14 16 18 21 24 27 28 29 30 31 31
6 6 6 6 6 7 8 9 10 11 12 13 14 15 15 16 16 15 15 14 14 13 12 10 8 7 5 4 5 6 8 11 13 14 17 19 22 25 27 29 29 30 32
7 6 6 6 6 7 8 9 10 11 12 12 13 14 15 16 16 15 15 14 14 13 13 11 10 8 7 5 5 6 7 10 12 13 15 18 20 23 25 27 27 29 31
8 7 6 6 6 7 8 8 9 10 11 12 13 14 15 16 16 15 15 14 14 14 13 12 11 9 8 7 5 5 6 8 11 13 15 17 19 22 24 26 27 28 30
8 7 7 6 6 7 8 8 9 10 11 12 13 14 15 15 15 15 15 15 14 14 13 12 12 10 9 8 7 6 6 7 9 11 13 15 18 21 23 25 27 28 30
9 8 7 6 6 7 7 8 9 10 11 12 13 14 14 15 15 15 15 15 14 14 13 13 12 11 10 9 8 7 7 7 8 10 13 15 17 19 21 24 26 28 29
10 9 8 7 6 7 7 8 9 10 10 11 12 13 14 15 15 15 15 14 14 14 14 13 12 12 11 10 9 8 8 8 9 9 11 14 16 17 19 21 24 26 28
11 10 9 7 7 7 7 8 9 10 10 11 12 13 14 14 14 15 15 14 14 14 14 14 13 12 12 11 10 9 9 9 10 10 11 12 14 16 17 19 22 24 26
13 11 9 8 8 7 7 8 9 9 10 11 12 13 13 14 14 15 15 15 15 15 15 14 14 13 12 12 11 10 9 9 9 10 10 10 12 13 15 17 19 21 23
14 12 11 9 9 8 8 8 9 9 10 11 11 12 13 14 15 15 15 15 15 16 15 15 14 13 13 12 12 11 11 10 10 9 9 9 10 11 13 15 16 18 19
15 14 12 11 10 9 9 9 9 9 10 11 11 12 13 14 15 15 15 15 15 15 15 15 15 14 14 13 12 12 11 11 10 9 8 8 8 9 11 13 14 15 16
16 15 14 12 11 11 10 10 10 10 10 11 11 12 13 14 15 15 16 15 15 15 15 15 15 15 14 14 13 12 12 11 10 10 9 8 8 9 10 11 13 14 16
17 16 15 14 13 12 12 11 11 11 11 11 12 13 13 14 15 16 16 16 16 16 15 16 16 15 14 14 14 13 12 11 11 10 10 8 9 10 10 11 13 15 16
18 17 16 15 15 14 14 13 12 12 12 12 13 13 14 14 15 16 16 16 16 16 16 16 16 16 15 15 14 14 13 12 11 11 10 10 9 9 10 11 12 14 15
19 18 18 17 16 16 15 15 14 14 13 13 13 14 14 15 15 16 17 17 17 17 17 17 17 16 16 15 15 15 14 14 13 12 12 11 11 11 11 12 12 14 15
20 20 19 18 18 18 17 17 16 15 15 15 14 15 15 16 16 17 17 18 18 18 18 18 17 17 16 16 16 16 15 15 14 14 13 13 12 12 13 13 13 14 15
22 21 21 20 20 19 19 19 18 17 17 16 16 16 16 17 17 18 18 18 18 19 19 19 18 18 17 17 17 17 17 16 16 15 15 14 14 14 14 14 15 15 16
23 23 23 22 22 21 21 21 20 19 19 18 18 17 18 18 18 18 19 19 19 19 19 19 19 19 18 18 18 18 18 17 17 17 16 16 15 16 16 16 16 17 17
26 25 25 24 24 23 23 23 22 21 21 20 19 19 19 19 19 20 20 20 20 20 20 20 20 20 20 20 19 19 19 18 18 18 17 17 17 17 17 18 18 19 19
27 27 27 26 26 25 25 25 24 23 23 22 21 21 21 21 21 21 22 22 21 21 21 21 22 22 22 21 21 20 20 19 19 19 19 19 19 20 20 20 20 21 22
29 29 29 28 28 28 27 27 26 25 25 24 23 23 22 22 22 23 23 23 23 23 23 23 23 24 24 23 23 22 22 21 21 21 21 21 21 22 22 22 23 24 24
31 31 30 30 30 30 29 29 28 27 27 26 25 25 24 24 24 24 24 24 24 24 25 25 25 26 26 25 25 25 24 24 23 23 23 23 23 24 24 24 25 26 26
Wind_Direction
275 288 299 315 327 338 345 349 352 355 356 355 356 356 356 355 353 352 352 350 346 340 330 321 300 277 261 249 242 237 232 231 229 228 227 225 224 223 223 221 221 220 220
269 284 295 311 325 336 342 347 350 352 354 356 357 358 358 359 357 356 356 356 353 348 339 330 318 295 272 252 240 235 231 229 228 227 225 225 225 224 224 222 221 221 220
264 280 290 308 322 332 339 344 347 349 353 355 357 359 360 1 1 360 359 359 0 358 351 341 330 312 280 258 242 237 232 229 227 226 224 225 225 226 226 225 224 223 223
259 275 284 301 317 328 336 341 345 349 352 355 357 360 1 1 2 3 3 3 3 2 0 353 344 333 305 270 251 244 234 230 229 226 226 226 226 227 228 226 225 224 225
253 269 281 296 313 325 333 339 344 348 352 356 359 0 2 3 4 5 5 5 5 6 5 3 356 345 326 294 261 251 239 231 230 230 229 228 227 228 228 228 227 227 227
250 264 276 291 310 322 331 336 342 347 351 356 359 1 2 4 4 5 6 6 6 6 6 5 1 352 337 309 281 268 251 239 236 235 233 230 229 228 230 231 231 230 229
247 258 270 286 306 320 328 334 341 346 351 354 357 0 3 4 5 5 6 7 7 6 6 4 1 356 346 325 297 277 263 251 244 241 238 235 233 230 231 232 233 233 231
245 253 264 282 304 316 326 333 339 345 351 354 357 360 2 4 5 6 6 7 6 6 6 5 2 357 351 340 318 294 277 262 254 250 244 239 235 234 233 234 235 236 235
242 247 258 278 300 314 324 331 336 343 349 353 356 359 0 1 3 4 5 6 6 6 5 3 0 357 352 345 336 321 298 278 266 257 250 244 238 236 236 236 237 239 239
239 244 255 274 295 311 321 328 334 339 345 349 353 356 358 359 0 1 3 4 4 4 3 2 359 355 351 345 338 327 314 297 282 267 257 251 246 243 240 239 239 240 241
237 243 255 271 289 305 315 325 333 339 342 346 350 353 356 358 359 359 359 0 0 0 360 358 356 354 350 344 336 327 318 306 294 279 266 257 251 248 245 244 241 242 242
237 244 254 267 281 295 307 319 329 337 342 345 348 350 353 355 357 358 358 357 356 356 356 354 353 352 349 345 340 332 321 311 300 288 276 265 255 252 248 246 245 244 243
237 243 252 262 274 285 298 312 324 331 338 342 347 349 351 353 355 355 355 355 354 353 353 352 350 349 346 343 340 335 328 320 310 296 284 272 261 255 252 248 247 247 246
238 243 251 259 266 276 289 304 316 325 331 336 341 345 349 351 351 351 351 351 351 351 350 350 349 348 346 343 338 334 331 325 318 307 293 279 267 259 255 252 250 249 248
239 244 250 256 262 270 282 295 308 318 324 329 335 340 343 347 349 349 348 347 347 347 348 348 347 345 343 342 339 336 333 329 325 315 298 287 276 265 259 254 252 251 250
241 246 250 255 259 266 276 287 299 310 318 323 328 333 337 340 343 345 345 345 344 343 343 343 342 340 340 339 337 334 331 329 326 321 308 290 281 275 268 262 258 257 256
242 246 251 255 259 263 271 281 290 301 309 315 320 326 330 334 337 339 340 341 341 340 339 339 339 337 336 336 334 330 329 327 325 323 316 304 287 278 274 269 265 262 260
242 245 250 254 258 262 268 276 284 292 300 307 313 319 323 328 332 334 335 336 337 337 336 335 335 334 333 332 331 328 324 323 322 320 316 307 297 288 283 277 273 270 266
244 247 250 253 257 261 266 271 278 286 293 299 306 312 317 322 326 329 331 332 332 332 333 332 332 330 329 327 327 325 320 318 316 313 310 306 300 293 290 287 282 276 271
245 248 251 253 256 259 264 269 274 280 286 293 299 305 310 315 320 325 327 328 328 327 328 329 328 328 326 324 323 322 319 314 312 309 306 303 298 294 290 287 286 282 277
246 248 250 253 256 259 262 266 271 275 281 287 292 298 304 309 314 319 323 324 324 324 324 325 325 325 323 323 321 318 316 313 309 306 303 299 296 294 292 289 287 285 282
247 248 251 253 256 258 261 264 268 272 277 281 286 292 297 303 308 313 317 319 320 321 321 322 322 321 320 319 318 317 315 312 308 304 301 298 296 293 291 290 289 287 285
247 249 251 253 255 257 260 263 266 269 273 277 281 286 292 297 302 306 310 314 315 316 318 318 318 318 317 315 314 313 312 310 307 304 301 298 296 294 292 291 288 288 287
248 249 251 253 255 257 259 262 264 267 271 274 278 282 287 292 297 301 305 308 310 311 313 314 314 315 314 313 312 310 308 306 304 302 300 298 297 294 292 290 289 288 288
250 250 251 253 254 256 258 260 263 265 268 271 275 279 283 288 292 297 301 304 306 307 309 310 311 312 311 310 309 309 307 304 302 300 299 297 296 294 293 291 289 288 288
252 252 252 254 255 256 258 259 261 264 266 269 272 276 280 285 289 293 297 300 302 304 306 307 308 309 308 307 307 306 304 303 301 299 298 297 296 295 294 293 291 289 288
Height
5851 5850 5849 5848 5846 5844 5841 5838 5835 5832 5828 5824 5820 5816 5812 5807 5803 5799 5795 5791 5788 5785 5783 5781 5780 5780 5780 5780 5782 5783 5785 5788 5791 5795 5799 5802 5806 5810 5814 5818 5822 5825 5829
5850 5849 5848 5846 5845 5843 5840 5837 5834 5831 5827 5824 5820 5815 5811 5806 5802 5798 5794 5791 5787 5784 5782 5780 5779 5778 5778 5778 5779 5780 5782 5784 5787 5790 5794 5798 5802 5805 5809 5813 5817 5820 5824
5848 5848 5846 5845 5844 5841 5839 5836 5833 5830 5826 5823 5819 5815 5810 5806 5802 5798 5794 5790 5787 5784 5781 5779 5777 5776 5776 5776 5777 5778 5779 5781 5783 5786 5790 5793 5797 5801 5805 5808 5812 5816 5820
5847 5846 5845 5844 5842 5840 5838 5835 5832 5829 5826 5822 5818 5814 5810 5806 5802 5797 5794 5790 5787 5784 5781 5779 5777 5775 5775 5774 5775 5776 5777 5778 5780 5782 5785 5789 5792 5796 5800 5803 5807 5811 5814
5845 5844 5844 5842 5841 5839 5837 5834 5831 5828 5825 5821 5818 5814 5810 5806 5801 5797 5794 5790 5787 5784 5781 5778 5777 5775 5774 5773 5773 5774 5775 5776 5777 5779 5782 5785 5788 5791 5794 5798 5802 5805 5809
5843 5843 5842 5841 5839 5838 5835 5833 5830 5827 5824 5821 5817 5813 5809 5805 5801 5798 5794 5790 5787 5784 5781 5778 5776 5775 5773 5773 5772 5772 5773 5774 5775 5776 5778 5781 5783 5786 5789 5792 5796 5799 5803
5841 5841 5840 5839 5838 5836 5834 5832 5829 5826 5823 5820 5817 5813 5809 5805 5801 5797 5794 5790 5787 5784 5781 5778 5776 5774 5773 5771 5771 5771 5771 5771 5772 5773 5775 5777 5779 5781 5784 5787 5790 5793 5797
5839 5839 5839 5838 5836 5835 5833 5831 5828 5825 5822 5819 5816 5812 5809 5805 5801 5797 5794 5790 5787 5784 5781 5778 5776 5774 5772 5771 5770 5769 5769 5769 5769 5770 5771 5772 5774 5777 5779 5782 5784 5787 5790
5837 5837 5837 5836 5835 5833 5831 5829 5827 5824 5821 5818 5815 5812 5808 5804 5801 5797 5794 5790 5787 5784 5781 5778 5776 5774 5772 5770 5769 5767 5767 5766 5766 5767 5767 5768 5770 5772 5774 5776 5779 5781 5784
5835 5835 5835 5834 5833 5831 5830 5828 5825 5823 5820 5817 5814 5811 5807 5804 5801 5797 5794 5790 5787 5784 5781 5778 5776 5773 5771 5769 5767 5766 5765 5764 5763 5763 5763 5764 5765 5767 5768 5770 5772 5775 5777
5832 5833 5832 5832 5831 5829 5828 5826 5824 5821 5819 5816 5813 5810 5807 5803 5800 5797 5793 5790 5787 5784 5781 5778 5775 5773 5770 5768 5766 5764 5763 5762 5760 5760 5759 5759 5760 5762 5763 5765 5766 5768 5770
5830 5830 5830 5829 5828 5827 5826 5824 5822 5820 5817 5815 5812 5809 5806 5802 5799 5796 5793 5790 5786 5783 5780 5777 5774 5772 5769 5767 5764 5763 5761 5759 5757 5756 5755 5755 5755 5756 5757 5759 5760 5761 5763
5826 5827 5827 5826 5826 5825 5824 5822 5820 5818 5816 5813 5811 5808 5805 5802 5798 5795 5792 5789 5786 5782 5779 5776 5774 5771 5768 5765 5763 5761 5758 5756 5754 5752 5751 5751 5751 5752 5752 5753 5754 5755 5757
5823 5824 5824 5823 5823 5822 5821 5820 5818 5816 5814 5812 5809 5807 5804 5800 5797 5794 5791 5788 5785 5781 5778 5775 5772 5769 5767 5764 5761 5759 5756 5754 5752 5749 5748 5747 5747 5747 5748 5749 5749 5750 5751
5820 5820 5821 5820 5820 5820 5819 5817 5816 5814 5812 5810 5807 5805 5802 5799 5796 5793 5790 5787 5783 5780 5777 5774 5771 5768 5765 5762 5760 5757 5754 5752 5750 5747 5746 5744 5744 5744 5745 5745 5745 5746 5746
5816 5817 5817 5817 5817 5816 5816 5815 5813 5812 5810 5807 5805 5803 5800 5797 5794 5791 5788 5785 5782 5779 5776 5773 5770 5767 5764 5761 5758 5755 5753 5750 5748 5746 5744 5743 5742 5742 5742 5742 5742 5742 5742
5811 5812 5813 5813 5813 5813 5812 5811 5810 5809 5807 5805 5803 5800 5798 5795 5793 5790 5786 5783 5780 5777 5774 5771 5768 5765 5762 5759 5756 5754 5751 5749 5746 5744 5742 5741 5740 5739 5739 5739 5738 5738 5738
5806 5807 5808 5809 5809 5809 5808 5808 5807 5805 5804 5802 5800 5798 5795 5793 5790 5787 5784 5781 5778 5775 5772 5769 5766 5763 5760 5758 5755 5752 5749 5747 5745 5742 5740 5739 5738 5737 5736 5735 5735 5734 5734
5801 5802 5803 5804 5804 5804 5804 5803 5802 5801 5800 5798 5796 5794 5792 5790 5787 5785 5782 5779 5776 5773 5770 5767 5764 5761 5758 5755 5752 5749 5747 5744 5742 5740 5738 5737 5736 5734 5733 5732 5731 5730 5730
5796 5797 5798 5798 5799 5799 5799 5798 5798 5797 5796 5794 5793 5791 5789 5786 5784 5781 5778 5776 5773 5770 5767 5764 5761 5758 5755 5753 5750 5747 5744 5742 5740 5738 5736 5734 5733 5731 5730 5729 5727 5726 5726
5790 5791 5792 5792 5793 5793 5793 5793 5792 5792 5791 5789 5788 5786 5785 5782 5780 5778 5775 5772 5769 5766 5763 5761 5758 5755 5752 5749 5746 5744 5741 5738 5736 5734 5732 5731 5729 5728 5726 5725 5723 5722 5721
5783 5784 5785 5786 5786 5787 5787 5787 5787 5786 5785 5784 5783 5781 5780 5778 5776 5773 5771 5768 5765 5763 5760 5757 5754 5751 5748 5746 5743 5740 5737 5735 5732 5730 5728 5727 5725 5723 5722 5721 5719 5718 5716
5776 5777 5778 5779 5779 5780 5780 5780 5780 5780 5779 5778 5777 5776 5774 5773 5771 5769 5766 5764 5761 5758 5755 5753 5750 5747 5744 5742 5739 5736 5733 5731 5728 5726 5724 5722 5721 5719 5718 5716 5714 5713 5711
5768 5769 5770 5771 5771 5772 5772 5773 5773 5772 5772 5771 5771 5770 5768 5767 5765 5763 5761 5758 5756 5753 5751 5748 5745 5742 5739 5737 5734 5731 5729 5726 5724 5722 5719 5717 5715 5714 5712 5710 5709 5707 5705
5759 5760 5761 5762 5763 5763 5764 5765 5765 5765 5765 5764 5764 5763 5762 5760 5759 5757 5755 5752 5750 5748 5745 5742 5740 5737 5734 5731 5728 5726 5723 5721 5719 5716 5714 5712 5710 5708 5706 5704 5702 5700 5699
5749 5750 5752 5753 5754 5755 5755 5756 5756 5757 5757 5756 5756 5755 5754 5753 5752 5750 5748 5746 5744 5741 5739 5736 5734 5731 5728 5725 5722 5720 5717 5715 5712 5710 5708 5705 5703 5701 5699 5697 5695 5693 5691